User: anonymous   Login
Location: Unspecified
(0.0000°N, 0.0000°E)
Time: 08:45:04
(UTC+01:00)
Language:

Cosmos 1125 Rocket - Orbit

View from above orbital plane
View from above orbital plane
View from above satellite
View from above satellite

Ground track
Ground track

The orbit data is extracted from the following two-line orbital elements,

1 11511U 79078B   17056.54889634  .00000041  00000-0  22692-4 0  9996
2 11511  74.0378 160.4911 0014533  69.9229 290.3487 14.36753652962580
Epoch (UTC): 25 February 2017 13:10:24
Eccentricity: 0.0014533
inclination: 74.0378°
perigee height: 759 km
apogee height: 779 km
right ascension of ascending node: 160.4911°
argument of perigee: 69.9229°
revolutions per day: 14.36753652
mean anomaly at epoch: 290.3487°
orbit number at epoch: 96258

The dashed part of the orbit path shows where the satellite is in the earth's shadow,  

DLR